Location: Obersdorf
(47.4079°N, 10.2781°E)
Time: 11:56:50
(UTC+01:00)

HuskySat-1 - Visible Passes

Search period start: 01 December 2021 00:00
Search period end: 11 December 2021 00:00
Orbit: 443 x 456 km, 51.6° (Epoch: 01 December)

Date Brightness Start Highest point End Pass type
(mag) Time Alt. Az. Time Alt. Az. Time Alt. Az.
01 Dec ? 18:20:10 10° SSW 18:23:03 26° SE 18:23:03 26° SE visible
02 Dec ? 17:42:48 10° S 17:45:30 21° SE 17:47:00 16° ESE visible
02 Dec ? 19:19:04 10° WSW 19:20:35 24° WSW 19:20:35 24° WSW visible
03 Dec ? 17:05:33 10° S 17:07:49 16° SE 17:10:05 10° E visible
03 Dec ? 18:41:16 10° WSW 18:44:26 66° SW 18:44:26 66° SW visible
04 Dec ? 18:03:29 10° SW 18:07:01 63° SSE 18:08:13 37° E visible
04 Dec ? 19:41:10 10° W 19:41:48 14° W 19:41:48 14° W visible
05 Dec ? 17:25:43 10° SW 17:29:11 50° SSE 17:31:56 15° ENE visible
05 Dec ? 19:03:12 10° W 19:05:31 34° WNW 19:05:31 34° WNW visible
06 Dec ? 18:25:14 10° W 18:28:46 57° NNW 18:29:10 52° NNE visible
07 Dec ? 17:47:15 10° WSW 17:50:49 66° NNW 17:52:47 24° ENE visible
07 Dec ? 19:25:15 10° WNW 19:26:21 18° WNW 19:26:21 18° WNW visible
08 Dec ? 17:09:17 10° WSW 17:12:51 78° NNW 17:16:21 11° ENE visible
08 Dec ? 18:47:13 10° WNW 18:49:56 36° NNW 18:49:56 36° NNW visible
09 Dec ? 18:09:11 10° WNW 18:12:36 42° N 18:13:29 34° NNE visible
09 Dec ? 19:46:59 10° WNW 19:47:03 10° WNW 19:47:03 10° WNW visible
10 Dec ? 17:31:06 10° W 17:34:33 44° N 17:37:01 17° ENE visible
10 Dec ? 19:08:58 10° WNW 19:10:35 24° NW 19:10:35 24° NW visible
